Simultaneous Nadir Overpasses (SNOs) Predictions

Prediction of SNOs between GOES-14 and NPP Satellite Orbit:

Table of predicted SNOs for the next 14.0 days since TLE Epoch: 11/25/2023
Index Date Time (GOES-14) GOES-14 Lat,Lon NPP Lat,Lon Distance(km) Time Diff (sec)
1 11/25/2023 20:24:25 -0.01,-108.60 0.88,-104.52 464.29 80
2 11/27/2023 08:43:33 -0.01,-108.64 0.27,-109.79 132.29 80
3 11/28/2023 08:27:28 0.00,-108.64 -0.78,-105.27 384.59 80
4 11/29/2023 20:46:43 0.02,-108.60 -0.44,-110.57 224.61 80
5 11/30/2023 20:30:38 0.01,-108.60 0.56,-106.03 292.25 80
6 12/02/2023 08:49:45 -0.03,-108.64 0.58,-111.31 304.24 80
7 12/03/2023 08:33:40 -0.02,-108.64 -0.42,-106.77 212.77 80
8 12/04/2023 20:52:56 0.04,-108.61 -0.72,-112.08 395.93 80
9 12/05/2023 20:36:51 0.03,-108.61 0.28,-107.55 121.22 80
10 12/07/2023 08:55:57 -0.05,-108.65 0.91,-112.81 474.79 80
11 12/08/2023 08:39:51 -0.04,-108.65 -0.10,-108.28 42.51 80
